Location: Culleoka
(33.1312°N, 96.4919°W)
Time: 21:59:25
(UTC+00:00)

Okean 1 - Pass Details

Date: 04 July 2022
Orbit: 532 x 553 km, 82.5° (Epoch: 07 August)

Event Time Altitude Azimuth Distance (km) Brightness Sun altitude
Rises 08:52:27 0° 11° (N) 2,685 7.9 -24.6°
Reaches altitude 10° 08:55:05 10° 29° (NNE) 1,787 7.0 -24.2°
Maximum altitude 08:58:00 20° 77° (ENE) 1,277 5.7 -23.9°
Drops below altitude 10° 09:00:53 10° 125° (SE) 1,776 5.9 -23.5°
Enters shadow 09:01:07 - 128° (SE) 1,844 6.0 -23.5°
